Starlink 32474

operational
NORAD ID: 61260 Int'l Des: 2024-175 Owner: SPXS Country: US Constellation: starlink
LEOCIRCULAR

Über Starlink 32474

Beschreibung wird geladen...

Live-Position

3D-Globus wird geladen...

Nächste Überflüge

Höhenverlauf

Altitude vs Time

uPlot chart will show altitude changes over time

Zweizeiliger Elementsatz

1 61260U 24175T 26035.24259591 .00000006 00000-0 12326-4 0 9991
2 61260 53.1623 349.3263 0001246 99.2897 260.8245 15.30191872 76337
Epoch: 4. Feb. 2026 • Age: 14 hours

Aktueller Status

Höhe 475.3 km
Geschwindigkeit 7.63 km/s
Subsatellitenpunkt 16.58°N, 75.91°W
Startdatum 25. Sept. 2024
Alter 1.3 years
Typ internet

Technische Details

Klassifizierung Payload
Masse 730.00 kg
Trockenmasse 700.00 kg
Gesamtmasse 730.00 kg
Länge 0.30 m
Durchmesser 4.10 m
Spannweite 29.00 m
Form Box + pan
Hersteller SPXS
Bus-Typ Starlink V2M
Phasenstatus In Orbit
Besitzer/Staat SPXS/US

Große Konstellationen

Loading constellations...